Location: Arcizac
(43.0933°N, 0.0112°E)
Time: 15:36:37
(UTC+00:00)

Cosmos 2242 Rocket - Pass Details

Date: 14 December 2019
Orbit: 618 x 652 km, 82.5° (Epoch: 18 January)

Event Time Altitude Azimuth Distance (km) Brightness Sun altitude
Rises 16:48:46 0° 176° (S) 2,952 7.4 -4.5°
Reaches altitude 10° 16:51:01 10° 172° (S) 2,049 6.5 -4.9°
Maximum altitude 16:55:29 58° 94° (E) 765 3.8 -5.6°
Drops below altitude 10° 17:00:00 10° 16° (NNE) 2,069 5.9 -6.4°
Sets 17:02:17 0° 13° (NNE) 2,983 6.7 -6.8°
